Zurück zum Katalog

USA 179

AktivMilitärHEO
NORAD 28384·PAYLOAD·🇺🇸 United States

Gestartet Aug 31, 2004 von Cape Canaveral Space Force Station

Loading…

Nächste Überflüge (nächste 24 Stunden)

TLE

AktuellSource: Mike McCants

Epoche: Sep 15, 2026, 00:19 UTC

1 28384U 04034A   26258.01366971  .00001481  00000-0  00000-0 0    09
2 28384  63.5857 196.1275 7259984 255.8699  20.4332  2.00447793  5746

Verfolge USA 179 in Echtzeit mit AllMySat

Download on the App Store